SATORO-T3

基本信息
目录编号:
64589
目录名称:
SATORO-T3
国际标识:
2025-135BP
轨道中心:
EARTH
卫星名称:
SATORO-T3
卫星全名:
SATORO-T3
卫星状态:
在轨 (已飞行175 天)
发射日期:
2025-06-23 UTC
国别 :
新加坡 (SG)
星等 :
--
轨道信息
数据来源 国际轨道数据
星历时间: 2025-12-15T05:32:50+0800
20小时前
查看轨道信息
半长轴: 6965.788km
偏心率: 0.0004198
轨道倾角: 97.758°
近地点辐角 215.421°
升交点赤经 100.637°
平近点角 144.673°
近地点: 584.728km
远地点: 590.578km
周期: 96.431分钟
每日圈数: 14.933013
详细信息
使用方式:
暂无
2D轨道图
3D轨道图
轨道高度分析图
轨道倾角分析图
轨道综合分析图
查看轨道综合分析图